Regional Weather Roundup
Issued by NWS

Home | Current Version | Previous Version | Text Only | Print | Product List | Glossary On
Versions: 1 2 3 4 5 6 7 8 9 10 11 12 13 14 15 16 17 18 19 20 21 22 23 24 25 26 27 28 29 30 31 32 33 34 35 36 37 38 39 40 41 42 43 44 45 46 47 48 49 50
000
ASUS44 KJAN 020703
RWRMS

MISSISSIPPI HOURLY WEATHER ROUNDUP
NATIONAL WEATHER SERVICE JACKSON MS
200 AM CDT SAT AUG 02 2014

NOTE: "FAIR: INDICATES FEW OR NO CLOUDS BELOW 12,000 FEET WITH NO
SIGNIFICANT WEATHER AND/OR OBSTRUCTIONS TO VISIBILITY.

MSZ001>002-007>008-010>013-018>021-025>028-034>036-020800-
NORTHWEST MISSISSIPPI

CITY           SKY/WX    TMP DP  RH WIND       PRES   REMARKS
CLARKSDALE     CLOUDY    72  72 100 CALM      30.02F
CLEVELAND      CLOUDY    72  72 100 CALM      30.01S
GREENWOOD      CLOUDY    72  70  93 CALM      30.02S FOG
GREENVILLE     CLOUDY    73  71  93 SE5       30.02R FOG
GRENADA        CLOUDY    70  68  94 CALM      30.02R
OLIVE BRANCH   MOCLDY    72  70  94 N5        30.04S
OXFORD         FAIR      72  66  83 CALM      30.04F
TUNICA         MOSUNNY   72  70  94 CALM      30.03S
$$

MSZ003>006-009-014>017-022>024-029>033-037>039-020800-
NORTHEAST MISSISSIPPI

CITY           SKY/WX    TMP DP  RH WIND       PRES   REMARKS
BELMONT        PTSUNNY   70  68  93 CALM      30.03S
COLUMBUS AFB   CLOUDY    72  70  93 CALM      30.00F
CORINTH          N/A     68  66  94 CALM      30.03S FOG
GOLDN TRIANGLE CLOUDY    72  66  83 N3        30.00F
STARKVILLE     PTSUNNY   72  68  88 CALM      30.01R
TUPELO         PTCLDY    72  68  87 NE7       30.01F
$$

MSZ040-058-020800-
CENTRAL MISSISSIPPI

CITY           SKY/WX    TMP DP  RH WIND       PRES   REMARKS
JACKSON INTL   CLOUDY    73  71  93 CALM      30.01S
JACKSON HAWKNS CLOUDY    73  68  84 NE3       30.01F
MERIDIAN KEY   CLOUDY    72  68  87 CALM      30.00F
MERIDIAN NAS   CLOUDY    73  69  87 CALM      30.00F
RAYMOND        CLOUDY    70  64  83 CALM      30.01S HAZE
VICKSBURG      CLOUDY    71  69  93 CALM      30.01R FOG
$$

MSZ059>079-020800-
SOUTH MISSISSIPPI

CITY           SKY/WX    TMP DP  RH WIND       PRES   REMARKS
BROOKHAVEN     PTSUNNY   70  70 100 CALM      30.02S FOG
COLUMBIA       CLOUDY    72  72 100 CALM      29.99S
HATTIESBURG    CLOUDY    74  71  91 CALM      30.00F
MCCOMB         CLOUDY    72  70  93 E5        29.99F
NATCHEZ        CLOUDY    72  68  88 E9        29.98F
PINE BELT      PTCLDY    73  68  83 NE3       30.01F
$$

MSZ080>082-020800-
COASTAL MISSISSIPPI

CITY           SKY/WX    TMP DP  RH WIND       PRES   REMARKS
BILOXI         PTCLDY    74  69  83 E3        29.98S
PASCAGOULA     PTCLDY    68  67  96 CALM      29.98F FOG
GULFPORT       MOCLDY    77  69  76 CALM      29.97F
$$


USA.gov is the U.S. government's official web portal to all federal, state and local government web resources and services.